Tracking 23731 objects as of 27-Sep-2021
HD Live streaming from Space Station
objects crossing your sky now

GLOBALSTAR M077

Track GLOBALSTAR M077 now!
10-day predictions
GLOBALSTAR M077 is classified as:


NORAD ID: 37191
Int'l Code: 2010-054D
Perigee: 1,420.5 km
Apogee: 1,421.0 km
Inclination: 52.0 °
Period: 114.1 minutes
Semi major axis: 7791 km
RCS: 4.923 m2 (large)
Launch date: October 19, 2010
Source: Globalstar (GLOB)
Launch site: TYURATAM MISSILE AND SPACE COMPLEX (TTMTR)
aabbcc
Your satellite tracking list
Your tracking list is empty




NASA's NSSDC Master Catalog

Two Line Element Set (TLE):
1 37191U 10054D   21269.29993558 -.00000104  00000-0 -23306-5 0  9997
2 37191  52.0057 275.5551 0000324  87.6722 285.4177 12.62264380505416
Source of the keplerian elements: AFSPC